Dewpoint
41 42 42 42 42 42 43 45 50 54 57 58 58 58 56 53 51 48 47 46 46 46 48 48 47 48 50 51 52 54 55 55 56 56 55 55 56 56 56 56 55 55 55
40 41 42 42 42 42 42 43 44 47 54 58 58 58 52 49 47 46 45 45 42 42 41 42 42 43 44 44 46 47 47 47 49 53 54 52 51 53 56 56 56 56 56
40 41 41 42 42 42 43 43 44 45 45 47 47 47 47 47 46 44 43 43 42 40 40 40 40 41 42 42 44 45 45 45 45 47 48 48 46 49 48 53 55 56 55
41 41 42 42 42 43 45 45 45 45 45 46 45 45 44 42 43 42 41 39 39 38 36 38 38 39 40 40 42 41 44 44 44 45 43 47 48 45 44 43 48 49 52
41 41 42 43 43 44 44 44 44 44 44 43 44 42 41 41 39 38 36 36 35 36 32 33 35 35 37 39 41 41 42 44 44 44 45 45 47 46 46 44 43 45 45
41 41 42 42 42 44 45 44 43 42 42 41 41 40 39 35 34 33 30 30 29 31 27 29 30 31 32 33 35 37 41 41 42 43 44 44 44 43 44 43 42 42 42
40 40 41 41 42 43 43 42 42 40 39 38 36 36 35 33 29 27 25 23 21 25 24 26 24 26 28 28 29 33 37 37 39 41 43 42 38 38 40 41 41 42 42
40 40 41 41 42 42 41 40 39 38 37 34 31 29 29 27 24 23 21 19 19 21 22 22 22 22 21 20 23 27 35 29 34 40 36 35 32 35 37 41 42 40 38
40 40 40 41 41 40 39 37 36 36 36 31 26 23 21 20 19 19 18 18 17 14 18 20 20 20 18 18 20 21 25 24 25 34 31 31 31 37 40 42 43 40 37
39 39 39 41 40 37 36 35 34 33 31 26 21 17 16 16 16 15 15 15 15 16 17 17 17 18 16 16 17 20 21 19 23 26 27 30 32 35 40 37 38 38 35
39 39 40 41 37 34 33 32 31 30 28 22 16 14 13 13 12 11 13 14 14 15 15 14 15 14 14 14 15 16 16 18 23 26 27 29 28 27 29 34 33 32 30
39 39 40 37 32 30 29 29 28 27 25 18 13 12 12 11 10 10 11 12 12 14 13 13 13 12 13 14 14 14 17 20 22 24 27 24 20 23 24 27 28 29 30
39 39 39 35 31 28 26 25 24 24 19 13 11 10 11 10 10 11 11 12 12 13 12 12 12 12 13 14 14 15 19 21 22 22 24 21 20 23 24 26 27 30 28
38 39 38 34 30 27 24 22 20 20 15 12 11 11 11 12 12 13 13 13 13 12 12 12 11 13 13 14 13 19 21 21 21 21 22 21 22 22 26 27 29 27 29
38 39 38 33 29 25 23 21 18 16 13 11 11 12 13 14 14 14 14 13 14 13 12 12 12 13 13 8 20 22 22 22 21 21 21 22 25 29 28 26 28 29 29
38 40 37 33 29 25 23 21 16 12 13 11 11 14 13 14 15 14 14 14 14 12 12 12 13 15 10 22 26 26 23 22 22 22 22 22 26 27 31 31 31 29 29
37 40 37 33 28 25 23 19 11 11 10 11 11 13 14 14 15 14 13 13 13 13 12 11 12 11 12 23 27 28 23 23 22 21 22 22 22 28 30 31 30 34 31
36 39 34 30 26 24 20 14 10 9 10 11 11 13 15 14 14 14 13 13 13 13 12 12 12 12 13 24 26 28 23 22 21 21 22 23 26 30 27 26 34 25 24
38 37 32 26 24 20 15 10 9 8 9 11 12 13 14 14 13 13 12 13 13 13 13 12 13 12 13 23 26 26 22 20 21 21 22 27 27 27 29 33 25 23 24
34 31 26 22 17 11 8 8 7 7 8 11 13 14 15 14 12 13 13 13 14 13 14 13 13 17 14 22 26 25 21 20 22 23 27 28 24 28 33 23 22 24 23
29 25 22 17 12 9 9 8 7 7 11 13 14 14 14 13 13 13 14 14 14 14 14 13 13 14 17 20 26 27 21 22 25 29 24 21 28 35 27 25 21 23 24
28 22 17 13 11 11 9 7 6 10 13 14 14 13 12 12 13 15 16 16 15 14 14 13 14 17 18 24 25 26 27 27 26 24 22 25 34 26 24 22 24 25 24
26 22 18 13 11 11 9 7 9 12 13 13 11 11 11 12 13 15 15 15 14 15 14 14 16 19 20 21 26 27 28 29 24 24 32 25 23 23 21 22 23 23 21
24 20 15 10 11 11 10 10 11 12 12 11 10 11 11 14 13 14 15 15 15 15 15 17 18 20 20 22 22 23 25 25 29 32 20 19 20 22 21 19 19 20 21
22 17 13 13 11 10 10 11 11 12 10 10 10 11 12 13 15 15 15 15 16 18 18 18 19 20 21 20 24 24 20 25 27 20 16 15 19 19 17 17 18 19 20
18 16 13 11 10 10 10 11 12 12 11 10 10 11 14 15 15 15 15 20 22 23 23 23 22 21 24 25 25 24 26 26 23 17 14 18 19 18 17 17 18 19 20
Lifted_Index
6 7 7 8 8 7 7 6 6 5 5 4 4 4 4 4 4 4 5 6 7 8 9 9 10 10 10 11 11 10 9 9 8 7 7 7 6 5 5 4 4 3 3
7 7 8 8 8 7 7 7 7 6 5 5 4 4 5 5 5 6 7 8 9 10 11 11 12 12 12 12 12 12 11 11 10 9 8 8 7 7 6 5 5 4 4
7 8 8 8 8 8 8 8 8 8 7 7 6 6 6 7 7 9 10 11 11 12 12 13 13 13 13 13 14 14 14 13 13 12 11 10 10 9 9 8 7 6 5
8 8 8 8 8 8 9 9 9 9 9 9 9 9 9 9 10 10 11 12 12 13 13 13 13 14 14 15 15 16 16 15 15 14 13 12 11 11 11 10 9 8 8
8 8 9 8 9 9 9 9 9 10 10 10 10 10 10 10 11 11 12 12 12 13 13 13 14 15 16 17 18 18 17 17 16 15 14 13 12 12 12 12 12 11 11
8 9 9 9 9 9 9 9 9 9 10 10 10 10 10 11 11 12 12 12 12 12 13 15 16 18 19 20 20 20 19 18 17 16 15 14 14 13 13 13 13 13 12
8 8 8 8 8 9 9 9 9 9 9 10 10 11 11 12 12 12 12 12 12 13 15 17 19 20 21 21 21 21 20 19 18 17 16 16 16 16 15 15 14 13 13
8 8 7 7 8 8 8 8 8 9 9 10 10 11 12 12 12 12 12 13 14 16 18 20 21 21 21 21 21 21 20 20 20 19 19 19 19 18 16 15 13 12 12
7 7 6 7 7 7 8 8 8 8 9 10 11 12 12 12 12 13 14 15 17 19 21 21 21 21 21 21 21 21 21 21 21 21 21 20 19 17 15 12 10 9 9
6 6 6 6 7 7 7 8 8 8 9 11 11 12 12 12 13 14 16 18 20 21 22 22 21 21 21 21 21 21 21 21 21 21 21 20 18 16 13 10 9 8 8
5 5 5 6 6 7 7 7 8 9 10 11 12 12 12 13 14 16 18 20 21 22 22 21 21 21 21 21 21 21 21 21 21 21 19 17 16 14 12 11 10 9 9
4 5 5 5 6 6 7 8 8 10 11 12 12 12 13 14 15 17 20 21 22 22 22 21 21 21 21 21 21 21 21 21 20 19 17 15 15 14 13 12 11 11 11
5 5 5 5 6 6 7 8 9 11 12 12 12 12 13 14 16 18 20 21 22 21 21 21 21 21 21 21 21 21 21 20 18 16 15 15 15 15 14 13 12 12 12
5 5 6 6 6 6 7 8 10 12 12 12 12 12 13 15 17 19 20 21 21 21 21 21 21 20 20 20 20 20 19 17 16 16 16 16 16 15 14 13 12 12 12
5 6 6 6 6 7 8 9 10 12 12 12 12 12 14 16 18 20 21 21 21 21 21 20 20 20 20 20 19 18 17 16 16 16 16 15 15 14 13 12 12 11 11
6 6 6 6 6 7 8 9 11 12 12 11 12 13 15 17 19 21 21 21 21 21 20 20 20 19 18 18 17 16 16 16 16 16 15 15 14 13 12 12 11 10 10
6 6 6 6 7 7 8 10 11 11 11 11 12 14 16 18 20 21 21 21 20 20 20 19 19 18 16 16 15 15 16 16 16 15 14 14 13 13 12 12 11 10 9
7 7 7 7 7 8 9 11 11 11 11 12 13 15 17 19 20 21 21 20 20 19 19 19 17 16 15 15 15 16 16 16 15 14 14 13 13 12 12 11 11 10 10
7 7 7 7 8 9 10 11 11 11 11 12 14 17 19 20 21 20 20 19 19 19 18 17 16 15 14 15 16 16 16 15 14 13 13 12 12 12 11 11 12 12 11
8 8 8 8 9 10 11 11 11 11 12 14 16 19 20 21 20 20 19 19 19 18 17 16 15 15 15 15 16 16 15 14 14 13 13 12 12 12 11 12 13 13 12
10 9 9 9 10 10 11 11 11 12 14 17 19 20 21 20 20 19 19 19 18 17 16 15 15 15 15 16 16 15 14 14 13 13 12 12 12 11 12 13 13 13 13
11 10 10 10 10 11 11 12 13 14 17 19 20 20 20 20 19 19 18 18 17 16 15 14 14 15 16 16 16 15 14 13 13 13 12 12 12 12 13 14 14 14 14
11 11 11 11 11 12 13 13 15 17 18 19 19 19 19 19 19 18 18 18 17 15 14 14 15 15 16 16 16 15 14 13 13 13 13 13 13 14 14 15 15 15 15
12 11 11 11 12 13 14 15 17 18 19 19 19 19 19 18 18 18 18 17 16 15 14 15 15 15 16 16 15 14 13 13 13 13 14 14 14 15 15 16 16 16 15
12 12 12 13 13 14 16 18 19 19 19 19 19 18 18 18 18 18 18 17 16 15 15 15 15 15 16 15 15 14 13 13 13 14 15 15 15 15 16 16 16 16 15
12 12 13 14 14 15 17 19 20 20 19 19 18 18 18 18 18 18 17 17 16 16 15 15 15 15 15 15 14 14 13 13 14 15 15 15 15 16 16 16 16 16 15